Triuchirapalli, India

6:15 PM IST on April 25, 2017 (GMT +0530)
Tiruchirappalli

Weather History for VOTR - July, 2013

Change the Weather History Date:

Tuesday, July 16, 2013

  Actual Average Record
Temperature  
Mean Temperature 88 °F -  
Max Temperature 95 °F 92 °F 102 °F (2015)
Min Temperature 82 °F 80 °F 75 °F (2016)
Cooling Degree Days 24    
Growing Degree Days 38 (Base 50)    
Moisture  
Dew Point 68 °F    
Average Humidity 52    
Maximum Humidity 66    
Minimum Humidity 27    
Precipitation  
Precipitation 0.00 in - - ()
Sea Level Pressure  
Sea Level Pressure 29.69 in    
Wind  
Wind Speed 13 mph ()    
Max Wind Speed 40 mph    
Max Gust Speed 32 mph    
Visibility 3.2 miles    
Events      
Averages and records for this station are not official NWS values.
T = Trace of Precipitation, MM = Missing Value Source: Averaged Metar Reports

Daily Weather History Graph

Daily Weather History Graph

Search for Another Location

Airport or City:

Trip Planner

Search our weather history database for the weather conditions in past years. The results will help you decide how hot, cold, wet, or windy it might be!

Date:

Astronomy

Jul. 16, 2013 Rise Set
Actual Time 6:00 AM IST 6:41 PM IST
Civil Twilight 5:37 AM IST 7:04 PM IST
Nautical Twilight 5:10 AM IST 7:31 PM IST
Astronomical Twilight 4:43 AM IST 7:58 PM IST
Moon 12:21 PM IST (7/16) 12:25 AM IST (7/17)
Length of Visible Light 13h 26m
Length of Day
12h 41m
First Quarter, 51% of the Moon is Illuminated
Jul 16
First Quarter
Jul 22
Full
Jul 29
Last Quarter
Aug 7
New
Aug 14
First Quarter

Hourly Weather History & Observations

Time (IST) Temp. Heat Index Dew Point Humidity Pressure Visibility Wind Dir Wind Speed Gust Speed Precip Events Conditions
12:10 AM 86.0 °F 89.4 °F 68.0 °F 55% 29.71 in 3.1 mi WNW 5.8 mph - N/A   Haze
12:40 AM 86.0 °F 90.4 °F 69.8 °F 58% 29.71 in 3.1 mi WNW 6.9 mph - N/A   Haze
1:10 AM 84.2 °F 88.4 °F 69.8 °F 62% 29.68 in 3.1 mi West 13.8 mph - N/A   Haze
1:40 AM 84.2 °F 88.4 °F 69.8 °F 62% 29.68 in 3.1 mi WNW 11.5 mph - N/A   Haze
2:10 AM 84.2 °F 88.4 °F 69.8 °F 62% 29.68 in 3.1 mi WNW 11.5 mph - N/A   Haze
2:30 AM 84 °F - 68 °F 50% 29.67 in 2 mi West 9.2 mph - -   Haze
2:40 AM 84.2 °F 87.3 °F 68.0 °F 58% 29.68 in 3.1 mi West 9.2 mph - N/A   Haze
3:10 AM 84.2 °F 88.4 °F 69.8 °F 62% 29.65 in 3.1 mi West 9.2 mph - N/A   Haze
3:40 AM 82.4 °F 86.3 °F 69.8 °F 66% 29.65 in 3.1 mi West 9.2 mph - N/A   Haze
4:10 AM 82.4 °F 86.3 °F 69.8 °F 66% 29.65 in 3.1 mi WNW 13.8 mph - N/A   Haze
4:40 AM 82.4 °F 86.3 °F 69.8 °F 66% 29.65 in 3.1 mi West 13.8 mph - N/A   Haze
5:10 AM 82.4 °F 86.3 °F 69.8 °F 66% 29.65 in 3.1 mi WNW 11.5 mph - N/A   Haze
5:30 AM 83 °F - 69 °F 54% 29.70 in 2 mi West 26.8 mph - -   Haze
5:40 AM 82.4 °F 86.3 °F 69.8 °F 66% 29.68 in 3.1 mi WNW 13.8 mph - N/A   Haze
6:10 AM 82.4 °F 86.3 °F 69.8 °F 66% 29.71 in 3.1 mi West 9.2 mph - N/A   Haze
6:40 AM 82.4 °F 86.3 °F 69.8 °F 66% 29.71 in 3.1 mi WSW 11.5 mph - N/A   Haze
7:10 AM 82.4 °F 86.3 °F 69.8 °F 66% 29.71 in 3.1 mi West 11.5 mph 23.0 mph N/A   Haze
7:40 AM 82.4 °F 86.3 °F 69.8 °F 66% 29.71 in 3.1 mi West 11.5 mph 23.0 mph N/A   Haze
8:10 AM 84.2 °F 88.4 °F 69.8 °F 62% 29.74 in 3.1 mi West 15.0 mph 26.5 mph N/A   Haze
8:30 AM 85 °F - 68 °F 47% 29.74 in 2 mi West 16.1 mph - -   Haze
8:40 AM 86.0 °F 89.4 °F 68.0 °F 55% 29.74 in 3.1 mi West 16.1 mph 27.6 mph N/A   Haze
9:10 AM 87.8 °F 91.4 °F 68.0 °F 52% 29.74 in 3.1 mi West 17.3 mph 28.8 mph N/A   Haze
9:40 AM 89.6 °F 93.4 °F 68.0 °F 49% 29.74 in 3.1 mi West 19.6 mph 31.1 mph N/A   Haze
10:10 AM 89.6 °F 93.4 °F 68.0 °F 49% 29.74 in 3.1 mi West 20.7 mph 32.2 mph N/A   Haze
10:40 AM 91.4 °F 95.4 °F 68.0 °F 46% 29.74 in 3.1 mi WNW 19.6 mph 31.1 mph N/A   Haze
11:10 AM 93.2 °F 97.7 °F 68.0 °F 44% 29.74 in 3.7 mi WNW 18.4 mph 29.9 mph N/A   Mostly Cloudy
11:30 AM 93 °F - 67 °F 33% 29.71 in 2 mi WNW 40.3 mph - -   Haze
11:40 AM 93.2 °F 97.7 °F 68.0 °F 44% 29.71 in 3.7 mi West 19.6 mph 31.1 mph N/A   Mostly Cloudy
12:10 PM 93.2 °F 97.7 °F 68.0 °F 44% 29.71 in 3.7 mi WNW 20.7 mph 32.2 mph N/A   Mostly Cloudy
12:40 PM 93.2 °F 97.7 °F 68.0 °F 44% 29.71 in 3.7 mi WNW 19.6 mph 31.1 mph N/A   Mostly Cloudy
1:10 PM 91.4 °F 95.4 °F 68.0 °F 46% 29.71 in 3.7 mi West 17.3 mph 28.8 mph N/A   Mostly Cloudy
1:40 PM 93.2 °F 97.7 °F 68.0 °F 44% 29.68 in 3.7 mi West 16.1 mph 27.6 mph N/A   Mostly Cloudy
2:10 PM 93.2 °F 97.7 °F 68.0 °F 44% 29.68 in 3.7 mi West 16.1 mph 27.6 mph N/A   Mostly Cloudy
2:30 PM 95 °F - 64 °F 27% 29.65 in 2 mi WNW 35.8 mph - -   Haze
2:40 PM 95.0 °F 98.5 °F 66.2 °F 39% 29.65 in 3.7 mi West 17.3 mph 28.8 mph N/A   Mostly Cloudy
3:10 PM 95.0 °F 98.5 °F 66.2 °F 39% 29.65 in 3.7 mi West 17.3 mph 28.8 mph N/A   Mostly Cloudy
3:40 PM 95.0 °F 98.5 °F 66.2 °F 39% 29.65 in 3.7 mi West 17.3 mph 28.8 mph N/A   Mostly Cloudy
4:10 PM 93.2 °F 97.7 °F 68.0 °F 44% 29.65 in 3.7 mi WNW 18.4 mph 29.9 mph N/A   Mostly Cloudy
4:40 PM 93.2 °F 97.7 °F 68.0 °F 44% 29.65 in 3.7 mi West 15.0 mph 26.5 mph N/A   Mostly Cloudy
5:10 PM 93.2 °F 97.7 °F 68.0 °F 44% 29.65 in 3.7 mi West 15.0 mph 26.5 mph N/A   Mostly Cloudy
5:30 PM 92 °F - 65 °F 31% 29.65 in 2 mi WNW 31.3 mph - -   Haze
5:40 PM 91.4 °F 94.0 °F 66.2 °F 43% 29.65 in 3.7 mi WNW 12.7 mph 24.2 mph N/A   Mostly Cloudy
6:10 PM 91.4 °F 94.0 °F 66.2 °F 43% 29.65 in 3.7 mi West 13.8 mph 25.3 mph N/A   Mostly Cloudy
6:40 PM 89.6 °F 93.4 °F 68.0 °F 49% 29.68 in 3.7 mi WNW 16.1 mph 27.6 mph N/A   Overcast
7:10 PM 87.8 °F 91.4 °F 68.0 °F 52% 29.68 in 3.7 mi West 15.0 mph 26.5 mph N/A   Overcast
7:40 PM 87.8 °F 91.4 °F 68.0 °F 52% 29.71 in 3.7 mi West 15.0 mph 26.5 mph N/A   Overcast
8:10 PM 87.8 °F 91.4 °F 68.0 °F 52% 29.71 in 3.7 mi West 13.8 mph 25.3 mph N/A   Overcast
8:30 PM 86 °F - 67 °F 44% 29.71 in 2 mi WNW 26.8 mph - -   Haze
8:40 PM 86.0 °F 89.4 °F 68.0 °F 55% 29.71 in 3.7 mi WNW 13.8 mph 25.3 mph N/A   Overcast
9:10 PM 86.0 °F 89.4 °F 68.0 °F 55% 29.71 in 3.7 mi West 15.0 mph 26.5 mph N/A   Overcast
9:40 PM 86.0 °F 89.4 °F 68.0 °F 55% 29.74 in 3.7 mi West 16.1 mph 27.6 mph N/A   Overcast
10:40 PM 84.2 °F 87.3 °F 68.0 °F 58% 29.74 in 3.7 mi WNW 16.1 mph 27.6 mph N/A   Overcast
11:10 PM 84.2 °F 87.3 °F 68.0 °F 58% 29.74 in 3.7 mi West 15.0 mph 26.5 mph N/A   Overcast
11:30 PM 85 °F - 68 °F 48% 29.73 in 2 mi WNW 13.8 mph - -   Haze
11:40 PM 84.2 °F 88.4 °F 69.8 °F 62% 29.74 in 3.7 mi West 15.0 mph 26.5 mph N/A   Overcast